This is the latest recevied weather packets stored in our database for station/object IR3AS. If no packets are shown the sender has not sent any weather packets the latest 10 day(s).
| Time | Temp. | Humidity | Pressure | Rain* | Wind** | Luminosity | Snow |
|---|---|---|---|---|---|---|---|
| 1787405713 | 20° C | 54% | 863.4 hPa | 0 mm | - | - | - |
| 1787405413 | 20.56° C | 53% | 863.7 hPa | 0 mm | - | - | - |
| 1787405113 | 20.56° C | 54% | 862.7 hPa | 0 mm | - | - | - |
| 1787404813 | 20° C | 52% | 863.3 hPa | 0 mm | - | - | - |
| 1787404513 | 20° C | 50% | 862.9 hPa | 0 mm | - | - | - |
| 1787404213 | 21.11° C | 52% | 862.7 hPa | 0 mm | - | - | - |
| 1787403913 | 22.22° C | 51% | 862.8 hPa | 0 mm | - | - | - |
| 1787403613 | 23.33° C | 50% | 862.8 hPa | 0 mm | - | - | - |
| 1787403313 | 23.89° C | 52% | 863.3 hPa | 0 mm | - | - | - |
| 1787403013 | 22.78° C | 56% | 863.4 hPa | 0 mm | - | - | - |
| 1787402713 | 21.11° C | 58% | 863.1 hPa | 0 mm | - | - | - |
| 1787402413 | 20.56° C | 59% | 864.2 hPa | 0 mm | - | - | - |
| 1787402113 | 20° C | 59% | 863.8 hPa | 0 mm | - | - | - |
| 1787401813 | 18.89° C | 60% | 863.2 hPa | 0 mm | - | - | - |
| 1787401513 | 17.78° C | 60% | 863 hPa | 0 mm | - | - | - |
| 1787401213 | 16.67° C | 64% | 863.2 hPa | 0 mm | - | - | - |
| 1787400913 | 16.11° C | 64% | 862.8 hPa | 0 mm | - | - | - |
| 1787400663 | 15.56° C | 66% | 863.1 hPa | 0 mm | - | - | - |
| 1787400613 | 15.56° C | 66% | 863.1 hPa | 0 mm | - | - | - |
| 1787400313 | 15° C | 65% | 862.6 hPa | 0 mm | - | - | - |
| 1787400013 | 15.56° C | 65% | 862.6 hPa | 0 mm | - | - | - |
| 1787399713 | 15.56° C | 66% | 863 hPa | 0 mm | - | - | - |
| 1787399413 | 15.56° C | 67% | 863.1 hPa | 0 mm | - | - | - |
| 1787399113 | 15° C | 67% | 862.8 hPa | 0 mm | - | - | - |
| 1787398813 | 15° C | 66% | 863.2 hPa | 0 mm | - | - | - |
* Rain latest hour (hover to see other rain measurements)
** Current wind speed in m/s (hover to see current wind gust speed)